Temperature
9 9 9 9 9 9 9 10 10 10 10 10 10 10 10 10 10 10 10 10 10 10 10 10 10 10 10 10 10 10 10 10 10 10 9 10 10 10 10 10 10 10 10
9 9 9 9 9 9 9 9 9 9 9 9 9 9 9 9 9 9 9 10 10 9 9 9 9 9 9 9 9 9 9 9 9 9 9 9 9 9 9 9 10 10 10
8 8 8 8 8 8 8 8 8 8 8 9 9 9 9 9 9 9 9 9 9 9 9 9 9 9 9 9 9 9 9 9 9 9 9 9 9 9 9 9 9 9 9
8 8 8 8 8 8 8 8 8 8 8 8 8 8 8 8 8 8 8 8 9 8 9 9 9 8 8 8 8 8 8 8 8 8 8 8 8 8 8 9 9 9 9
7 7 7 7 7 7 7 7 7 7 7 7 7 7 8 8 8 8 8 8 8 8 8 8 8 8 8 8 8 8 8 8 8 8 8 8 8 8 8 8 8 8 8
7 7 7 7 7 7 7 7 7 7 7 7 7 7 7 7 7 7 7 7 7 7 7 7 8 7 7 7 7 7 7 7 7 7 7 7 7 7 7 8 8 8 8
6 6 6 6 6 6 6 6 6 6 6 6 6 6 6 6 6 6 7 7 7 7 7 7 7 7 7 7 7 7 7 7 6 6 7 7 7 7 7 7 7 7 7
5 6 6 6 6 6 6 6 6 5 5 5 5 5 5 5 6 6 6 6 6 6 6 6 6 6 6 6 6 6 6 6 6 6 6 6 6 6 7 7 7 7 7
5 5 5 5 5 5 5 5 5 5 5 5 5 5 5 5 5 5 5 5 5 5 5 5 6 6 6 6 6 6 6 6 6 6 6 6 6 6 6 6 6 6 6
4 4 4 4 4 4 4 4 4 4 4 4 4 4 4 4 4 4 4 4 4 5 5 5 5 5 5 5 5 5 5 5 5 5 5 5 5 5 6 6 6 6 6
3 3 3 3 4 4 4 4 4 4 4 4 4 4 4 3 4 3 3 4 4 4 4 4 4 4 4 4 4 4 4 5 5 4 4 5 5 5 5 5 5 5 5
3 3 3 3 3 3 3 3 3 3 3 3 3 3 3 3 3 3 3 3 3 3 3 3 3 3 4 4 4 4 4 4 4 4 4 4 4 4 4 4 4 4 4
2 2 2 2 2 2 2 2 2 2 2 2 2 2 2 2 2 2 2 2 2 2 2 3 3 3 3 3 3 3 3 3 3 3 3 3 3 4 4 4 4 4 4
1 1 1 1 2 1 1 1 1 1 1 2 2 2 2 2 2 2 2 1 1 1 2 2 2 2 2 2 2 2 3 3 3 3 3 3 3 3 3 3 3 3 3
0 0 0 1 1 1 1 1 1 1 1 1 1 1 1 1 1 1 1 1 1 0 0 1 1 2 1 1 2 2 2 2 2 2 2 2 2 2 2 2 2 2 2
-0 -0 -0 -0 -0 -0 0 0 0 0 -0 0 0 0 0 0 0 0 0 0 -0 -0 -0 0 1 1 1 1 1 1 1 1 1 1 1 1 1 1 1 1 1 1 1
-1 -1 -1 -1 -1 -1 -1 -1 -1 -1 -1 -1 -1 -1 -0 -0 -0 -0 -0 -0 -1 -1 -1 -0 0 0 0 0 0 0 0 0 0 0 0 0 0 0 0 1 1 1 1
-2 -2 -2 -2 -2 -2 -2 -2 -1 -2 -2 -2 -1 -1 -1 -1 -1 -1 -1 -1 -1 -1 -1 -1 -1 -1 -1 -1 -1 -1 -0 -0 -0 -0 -0 -1 -1 -1 -1 -0 -0 -0 -0
-3 -3 -3 -3 -3 -3 -2 -2 -2 -2 -2 -2 -2 -2 -2 -2 -2 -2 -2 -2 -2 -2 -2 -2 -2 -2 -2 -2 -2 -1 -1 -1 -1 -1 -1 -1 -1 -1 -1 -1 -1 -1 -1
-3 -3 -3 -3 -3 -3 -3 -3 -3 -3 -3 -3 -3 -3 -3 -3 -3 -2 -2 -2 -2 -2 -3 -3 -3 -3 -2 -2 -3 -2 -2 -2 -2 -2 -2 -2 -2 -2 -2 -2 -2 -2 -2
-4 -4 -4 -4 -4 -4 -4 -4 -4 -4 -4 -4 -4 -4 -4 -3 -3 -3 -3 -3 -3 -3 -3 -4 -4 -4 -3 -3 -3 -3 -3 -3 -3 -3 -3 -3 -3 -3 -3 -3 -3 -3 -3
-4 -4 -4 -4 -5 -5 -5 -5 -5 -5 -5 -5 -4 -4 -4 -4 -4 -4 -4 -4 -4 -4 -4 -4 -4 -4 -4 -4 -4 -4 -4 -4 -4 -4 -4 -4 -4 -4 -3 -3 -3 -3 -4
-5 -5 -5 -5 -5 -5 -5 -6 -6 -6 -6 -5 -5 -5 -5 -5 -5 -5 -5 -5 -5 -5 -5 -5 -5 -5 -5 -5 -5 -5 -5 -5 -5 -5 -5 -5 -5 -4 -4 -4 -4 -4 -4
-6 -6 -6 -6 -6 -6 -6 -6 -7 -7 -6 -6 -6 -6 -6 -6 -6 -6 -6 -5 -5 -5 -5 -6 -5 -5 -5 -6 -6 -6 -6 -6 -6 -6 -6 -6 -5 -5 -5 -5 -5 -5 -5
-7 -7 -7 -7 -6 -6 -6 -7 -7 -7 -7 -7 -7 -7 -6 -6 -6 -6 -6 -6 -6 -6 -6 -6 -6 -6 -6 -6 -6 -7 -7 -7 -7 -7 -7 -7 -6 -6 -6 -6 -6 -6 -6
-7 -7 -7 -7 -7 -7 -7 -7 -8 -8 -7 -7 -7 -7 -7 -7 -7 -7 -7 -7 -7 -7 -7 -7 -7 -7 -7 -7 -7 -7 -7 -7 -7 -7 -7 -7 -7 -7 -7 -7 -6 -6 -6
Wind_Speed
4 4 4 5 6 6 6 6 6 7 7 7 8 8 8 7 7 7 7 8 8 8 7 7 7 8 8 8 8 8 9 8 8 8 8 9 9 9 8 7 8 7 7
5 4 4 4 5 5 6 5 5 5 5 6 6 6 7 7 7 7 7 7 8 8 8 6 6 7 7 8 8 8 8 8 8 8 8 8 8 8 8 7 6 6 6
5 5 4 3 3 5 6 6 6 6 4 5 4 5 5 6 6 6 7 7 8 8 9 8 6 5 5 6 7 7 7 6 6 6 6 6 6 7 7 7 6 6 5
5 5 4 3 4 5 5 4 3 3 3 3 2 3 4 5 5 6 6 7 8 7 8 8 8 6 5 5 5 5 5 5 5 4 4 4 5 5 6 6 6 6 5
4 4 4 3 4 4 4 3 3 2 2 2 2 3 4 4 4 5 6 7 7 8 7 8 8 7 6 5 4 4 4 4 3 3 3 3 4 4 5 5 5 5 5
4 4 4 4 4 3 3 3 3 2 2 2 2 3 3 3 4 4 4 5 7 7 7 7 8 7 7 6 4 4 3 3 3 3 3 3 4 4 4 4 5 4 3
3 4 3 3 3 2 2 3 3 3 2 1 2 2 2 2 3 3 4 4 5 6 7 7 7 7 6 6 6 4 3 3 3 3 3 3 4 4 3 3 3 4 3
2 3 3 2 2 2 2 3 3 2 1 1 2 2 0 1 1 2 2 2 3 5 5 5 6 6 6 6 6 6 5 3 2 3 3 3 3 4 3 3 3 4 4
2 2 2 3 2 2 2 2 3 3 2 1 0 2 2 2 1 1 1 2 2 2 3 4 5 6 6 6 6 6 7 5 3 3 3 3 3 3 4 4 3 3 4
1 1 1 2 2 2 2 2 2 2 3 2 1 1 0 1 2 1 1 1 1 1 2 3 3 4 5 5 6 6 6 6 5 4 3 3 3 3 3 4 4 4 5
1 1 0 1 2 2 1 2 1 1 2 3 2 1 1 1 0 2 2 1 1 1 1 1 2 3 4 5 5 5 5 5 5 5 5 4 3 3 3 4 4 5 5
0 0 0 1 1 2 2 2 2 2 2 2 2 2 2 2 2 2 2 2 1 2 1 1 0 1 2 4 5 5 5 5 5 5 5 5 4 4 4 4 4 4 4
1 1 1 1 1 2 2 2 2 2 2 3 3 2 2 2 2 2 2 1 1 1 1 1 2 1 1 3 3 4 5 5 5 4 4 5 5 4 4 5 5 5 4
2 2 1 1 2 2 2 2 1 2 2 3 3 3 2 2 2 2 2 2 1 1 1 2 1 2 2 2 3 3 4 5 5 4 4 5 5 5 5 5 6 6 6
1 1 1 1 1 1 2 2 2 2 2 2 3 3 2 2 2 2 2 3 3 2 3 3 2 2 2 2 3 3 3 4 4 4 4 4 4 4 4 5 6 6 6
1 1 1 1 1 2 2 2 2 2 2 2 2 2 2 2 2 2 3 2 2 3 3 2 2 1 2 2 3 2 3 3 3 3 4 4 4 4 4 4 4 5 6
2 2 2 2 2 2 2 2 3 3 3 3 2 3 3 2 2 3 3 3 3 3 3 2 1 1 1 2 3 3 3 3 4 4 4 4 4 4 4 3 4 5 6
2 2 2 2 2 3 2 3 3 3 3 4 3 3 3 2 3 3 3 3 3 3 3 3 1 1 2 2 2 2 3 3 4 5 5 5 5 5 4 4 5 5 6
3 3 2 3 3 3 3 3 3 3 4 4 4 4 4 4 4 3 4 4 3 3 2 2 2 1 1 1 1 2 2 3 4 5 6 6 6 6 6 6 6 6 6
3 3 3 3 4 4 4 4 4 3 3 4 4 4 4 5 5 5 4 4 4 3 2 2 2 1 1 1 1 1 2 2 3 5 7 7 7 7 7 8 7 7 7
3 3 3 3 3 3 4 4 4 4 4 4 4 4 5 6 6 6 5 5 5 4 3 3 2 2 2 2 3 2 3 2 3 3 3 4 5 5 7 8 8 8 8
2 2 3 3 4 4 6 6 5 4 4 5 5 4 5 6 7 8 9 8 7 6 5 4 4 4 4 3 2 3 2 2 3 2 2 4 4 4 6 7 9 9 9
2 3 3 3 4 6 7 7 7 4 4 5 5 4 4 5 7 5 7 8 8 9 9 6 5 6 5 5 4 4 4 4 5 3 3 4 3 5 6 8 9 9 9
2 3 3 4 4 5 7 8 7 4 4 5 5 5 5 5 5 6 5 5 5 6 7 6 5 6 5 5 6 5 5 3 3 3 3 4 3 4 5 6 9 9 9
3 3 3 3 4 5 7 8 7 4 4 5 5 5 6 6 9 9 6 6 6 5 7 8 9 8 9 8 7 3 3 3 4 3 2 2 2 3 3 4 7 9 8
3 3 3 3 4 4 7 8 8 4 5 5 5 5 8 8 9 9 6 6 6 5 4 4 5 6 5 6 7 5 4 4 3 3 3 2 2 1 2 2 3 4 5
Wind_Direction
105 96 90 89 86 89 89 85 84 79 75 73 72 73 71 68 62 59 52 51 56 60 66 76 76 78 87 92 89 86 81 74 70 69 68 65 62 58 60 64 70 68 66
121 115 101 93 90 94 97 94 89 85 79 80 73 70 70 69 62 59 57 51 49 53 59 71 78 80 86 91 91 86 81 75 70 68 65 63 59 54 53 55 61 64 63
126 123 114 102 97 100 97 93 85 82 78 79 71 65 67 66 63 58 58 56 51 46 48 57 68 77 86 91 92 88 83 76 71 69 68 61 57 53 50 49 51 51 50
119 120 117 111 109 107 102 98 92 78 68 70 65 58 57 60 60 61 64 62 58 50 45 47 50 54 67 79 83 83 78 74 72 70 69 60 52 49 49 46 46 45 43
122 118 121 122 118 109 101 105 88 90 91 79 73 57 50 49 49 63 66 63 61 57 51 46 44 42 50 65 68 71 70 69 70 70 66 60 56 52 48 45 42 43 40
116 113 119 119 122 115 103 101 101 77 92 97 79 59 43 43 47 51 57 61 58 56 52 49 46 40 41 51 59 57 54 57 60 62 62 62 59 56 51 42 40 35 35
118 116 115 121 118 125 131 124 113 97 78 86 85 58 30 42 52 45 44 51 49 50 51 50 49 47 37 35 43 46 39 41 46 44 46 44 42 36 34 32 31 29 21
106 127 122 129 128 115 124 125 119 120 107 95 114 119 53 340 2 32 32 45 38 42 41 43 48 49 41 35 35 40 29 13 34 33 26 18 20 25 21 22 25 26 15
104 103 140 134 137 142 158 165 159 147 163 200 77 140 154 215 284 337 16 35 30 29 22 29 38 44 44 39 33 36 40 30 14 14 16 10 2 15 12 5 3 20 12
99 99 117 146 147 148 163 182 168 164 160 180 194 34 103 151 167 248 311 350 10 25 16 13 23 38 39 44 38 34 38 31 22 11 360 0 354 351 355 7 10 5 360
84 91 122 142 156 158 164 176 179 166 182 182 178 160 106 52 109 175 230 266 327 320 355 347 12 31 31 39 35 28 30 26 17 10 2 352 353 357 356 2 8 6 360
18 20 55 186 188 180 189 204 199 194 203 192 189 179 169 170 186 177 195 205 240 279 313 290 348 360 20 28 32 27 25 21 10 3 358 357 356 360 360 1 354 1 357
258 275 282 255 241 220 198 196 212 215 204 201 202 205 196 197 173 177 175 185 222 285 302 276 248 252 348 7 16 25 21 13 6 3 7 8 5 1 359 6 9 2 356
234 255 243 259 246 235 206 188 214 235 212 212 214 206 203 209 195 183 171 160 176 267 264 260 259 232 300 337 348 10 2 355 357 2 11 13 12 10 15 13 5 357 352
238 247 245 280 276 251 220 190 213 235 230 223 219 211 215 220 206 201 182 176 175 207 236 233 238 245 273 296 319 333 335 333 343 350 356 0 4 360 3 9 9 6 0
227 215 247 269 285 271 251 215 217 227 224 235 222 208 219 226 213 206 200 201 194 194 223 225 226 253 264 280 290 306 305 325 328 330 332 339 340 340 342 350 350 347 345
221 221 233 246 260 263 258 233 227 219 223 233 224 214 223 211 204 209 203 197 200 187 224 252 230 270 239 250 284 285 288 292 301 307 302 304 312 310 315 315 320 324 325
230 231 234 239 252 256 252 239 236 226 223 227 224 216 222 214 205 200 196 201 203 201 206 237 249 231 233 235 249 267 282 278 282 286 285 284 285 285 293 302 307 308 310
233 235 231 230 244 249 246 244 235 231 228 230 224 217 218 207 214 208 202 205 207 209 196 208 247 249 251 243 258 287 287 277 276 276 277 271 272 274 282 288 291 294 298
231 229 233 235 241 246 247 244 237 232 232 237 233 224 219 213 216 212 212 208 200 196 188 197 232 249 242 240 208 245 280 269 277 278 274 271 271 273 274 277 280 279 280
240 234 233 243 247 243 240 229 223 228 231 234 235 232 231 229 227 221 217 205 199 199 197 205 229 238 230 219 227 226 250 278 278 257 267 271 267 266 267 271 272 269 268
255 239 231 236 243 247 255 248 235 219 227 232 239 237 239 239 241 239 236 226 210 204 205 212 227 232 234 228 225 228 235 260 266 232 232 267 257 261 265 264 268 269 268
270 255 245 236 242 250 254 253 247 228 227 230 232 235 245 245 242 234 240 242 238 232 223 214 222 227 226 217 213 229 232 242 252 233 236 264 253 260 265 266 269 268 267
269 260 257 247 246 254 258 258 255 238 231 234 232 232 237 240 238 230 225 227 230 236 236 229 225 229 224 211 213 225 233 254 276 239 214 251 261 261 270 267 266 267 269
269 266 258 252 249 262 266 264 258 235 235 238 238 238 238 235 245 241 231 226 232 242 245 240 238 236 236 235 225 211 211 231 265 256 214 231 258 280 280 269 267 268 266
260 269 273 261 253 259 269 266 258 240 237 242 242 242 247 244 243 237 230 222 230 231 221 233 244 245 238 235 231 215 209 225 251 254 215 215 242 278 284 267 255 263 264
Height
1538 1539 1540 1541 1542 1543 1544 1545 1546 1546 1547 1548 1549 1550 1550 1551 1552 1553 1553 1554 1555 1556 1556 1557 1557 1557 1558 1558 1558 1559 1559 1559 1560 1560 1560 1560 1560 1560 1560 1560 1559 1560 1560
1536 1537 1538 1540 1541 1542 1543 1543 1544 1545 1546 1547 1548 1548 1549 1550 1551 1551 1552 1553 1554 1554 1555 1555 1556 1557 1557 1557 1557 1558 1558 1558 1559 1559 1559 1559 1559 1559 1559 1559 1559 1559 1559
1534 1535 1537 1538 1539 1540 1541 1542 1543 1544 1544 1545 1546 1547 1548 1548 1549 1550 1550 1551 1552 1553 1553 1554 1554 1555 1556 1556 1556 1557 1557 1557 1557 1558 1558 1558 1558 1558 1558 1558 1558 1558 1558
1532 1533 1534 1536 1537 1538 1539 1540 1540 1541 1542 1543 1544 1545 1546 1546 1547 1548 1548 1549 1550 1551 1551 1552 1553 1553 1554 1554 1555 1555 1555 1555 1556 1556 1556 1556 1556 1557 1557 1557 1557 1557 1557
1529 1531 1532 1533 1534 1535 1536 1537 1538 1539 1540 1541 1541 1542 1543 1544 1544 1545 1546 1547 1548 1549 1549 1550 1551 1551 1552 1552 1553 1553 1554 1554 1554 1554 1554 1555 1555 1555 1555 1555 1555 1555 1555
1527 1528 1529 1530 1531 1532 1533 1534 1536 1537 1538 1538 1538 1539 1540 1541 1542 1543 1543 1544 1545 1546 1547 1547 1548 1549 1549 1550 1551 1551 1552 1552 1552 1552 1552 1553 1553 1553 1553 1553 1553 1554 1554
1523 1525 1526 1527 1528 1529 1530 1531 1532 1533 1535 1535 1536 1537 1538 1539 1539 1540 1540 1541 1542 1543 1544 1545 1546 1547 1547 1548 1548 1549 1549 1550 1550 1550 1550 1550 1551 1551 1551 1551 1551 1551 1551
1520 1521 1523 1524 1525 1526 1527 1528 1529 1530 1531 1532 1533 1534 1535 1536 1536 1537 1537 1538 1539 1540 1541 1542 1543 1544 1544 1545 1546 1546 1547 1547 1547 1548 1548 1548 1548 1549 1549 1549 1549 1549 1549
1517 1518 1519 1520 1521 1523 1524 1524 1525 1526 1527 1529 1531 1532 1532 1531 1533 1534 1534 1535 1537 1538 1538 1539 1540 1541 1542 1542 1543 1544 1544 1545 1545 1545 1545 1546 1546 1546 1546 1546 1547 1546 1546
1514 1515 1516 1517 1518 1519 1520 1521 1522 1523 1524 1525 1527 1528 1529 1529 1531 1531 1532 1533 1534 1534 1535 1536 1537 1538 1538 1539 1540 1541 1541 1542 1542 1542 1542 1542 1543 1543 1543 1543 1543 1543 1543
1510 1511 1512 1513 1514 1515 1516 1517 1518 1519 1520 1521 1522 1523 1524 1526 1527 1527 1528 1529 1531 1531 1532 1533 1534 1535 1535 1536 1537 1537 1538 1538 1539 1539 1539 1539 1539 1539 1540 1540 1540 1540 1540
1506 1507 1508 1509 1510 1511 1512 1513 1514 1515 1516 1517 1518 1519 1520 1521 1522 1523 1524 1524 1526 1527 1528 1529 1531 1531 1532 1532 1533 1534 1534 1535 1535 1535 1536 1536 1536 1536 1536 1536 1536 1536 1537
1501 1503 1504 1505 1506 1507 1508 1509 1510 1511 1512 1513 1514 1515 1516 1517 1518 1519 1520 1520 1521 1523 1524 1525 1527 1527 1528 1529 1529 1530 1531 1531 1531 1532 1532 1532 1532 1532 1532 1533 1533 1533 1533
1497 1499 1499 1501 1502 1502 1503 1505 1506 1507 1508 1509 1510 1511 1512 1513 1514 1515 1516 1516 1517 1518 1519 1521 1522 1523 1524 1525 1525 1526 1526 1527 1527 1527 1527 1528 1528 1528 1528 1528 1529 1529 1529
1493 1494 1495 1496 1497 1498 1498 1499 1501 1502 1503 1504 1505 1506 1507 1509 1510 1511 1512 1513 1514 1514 1514 1516 1518 1519 1520 1521 1521 1522 1522 1523 1523 1523 1523 1524 1524 1524 1524 1524 1524 1525 1525
1489 1490 1490 1491 1492 1493 1494 1494 1495 1497 1498 1499 1500 1501 1503 1504 1505 1506 1507 1508 1510 1511 1510 1511 1513 1514 1515 1516 1517 1518 1518 1518 1519 1519 1519 1519 1520 1520 1520 1520 1520 1520 1520
1484 1485 1486 1487 1488 1488 1489 1489 1490 1492 1493 1494 1495 1496 1498 1499 1500 1501 1502 1503 1505 1506 1506 1507 1508 1509 1510 1511 1512 1513 1513 1514 1514 1514 1515 1515 1515 1515 1515 1515 1515 1516 1516
1479 1480 1481 1482 1483 1483 1484 1484 1485 1486 1488 1489 1490 1492 1493 1494 1495 1496 1497 1498 1500 1501 1502 1501 1502 1504 1505 1506 1507 1508 1508 1509 1509 1510 1510 1510 1510 1511 1511 1510 1511 1511 1511
1475 1476 1477 1477 1478 1479 1479 1480 1481 1481 1483 1484 1485 1486 1488 1489 1490 1491 1492 1493 1495 1496 1496 1497 1497 1499 1500 1501 1502 1503 1503 1504 1505 1505 1505 1505 1505 1506 1505 1505 1505 1506 1506
1471 1471 1472 1473 1474 1474 1475 1475 1476 1477 1478 1479 1480 1482 1483 1484 1485 1486 1487 1488 1490 1490 1491 1492 1492 1493 1494 1495 1496 1497 1497 1498 1499 1500 1500 1500 1500 1500 1500 1500 1500 1500 1501
1466 1466 1467 1468 1469 1469 1470 1470 1471 1472 1473 1474 1475 1476 1477 1479 1480 1481 1482 1483 1484 1485 1486 1486 1487 1488 1489 1490 1491 1492 1492 1492 1493 1494 1494 1495 1495 1494 1494 1495 1495 1495 1495
1461 1461 1462 1463 1463 1464 1465 1466 1466 1467 1468 1469 1470 1471 1472 1473 1475 1476 1477 1478 1479 1480 1481 1482 1482 1483 1484 1486 1487 1487 1487 1487 1487 1488 1488 1488 1489 1489 1489 1489 1489 1490 1490
1456 1456 1457 1457 1458 1459 1460 1461 1462 1462 1463 1463 1464 1465 1466 1468 1469 1471 1472 1472 1474 1475 1477 1478 1477 1478 1479 1480 1482 1482 1482 1482 1482 1483 1483 1482 1483 1483 1484 1484 1484 1484 1485
1451 1451 1452 1452 1453 1454 1455 1456 1457 1457 1457 1458 1459 1460 1461 1462 1464 1465 1466 1467 1468 1469 1470 1471 1472 1473 1475 1475 1476 1477 1477 1477 1477 1478 1478 1477 1477 1478 1478 1478 1479 1479 1479
1446 1447 1447 1447 1448 1449 1450 1451 1451 1451 1452 1453 1454 1455 1456 1456 1458 1460 1461 1461 1462 1463 1465 1466 1467 1468 1469 1470 1471 1471 1471 1471 1471 1471 1472 1472 1471 1472 1472 1472 1473 1473 1473
1442 1442 1442 1442 1443 1443 1445 1445 1446 1446 1446 1447 1448 1449 1450 1451 1452 1453 1454 1455 1455 1457 1459 1460 1461 1462 1463 1464 1465 1466 1466 1466 1466 1466 1466 1467 1467 1467 1466 1466 1467 1468 1468